LA9NKA Weather Reports


time (UTC)temp
F
wind
direction
speed
knots
gust
knots
rain 1hr
in
rain 24hr
in
rain mn
in
humidity
%
barometer
mb
20260507003522 0 135 0.9 2.6 0.00 0.13 0.01 86 1015.0
20260507002521 0 0.0 0.0 0.00 0.13 0.01 86 1015.0
20260507002020 0 158 0.0 0.9 0.00 0.13 0.01 86 1015.1
20260507000650 0 204 0.9 2.6 0.00 0.13 0.01 86 1015.1
20260506235705 0 0.0 0.0 0.00 0.13 0.01 86 1015.2
20260506234604 0 0.0 0.0 0.00 0.13 0.01 86 1015.2
20260506233533 0 248 0.0 0.9 0.00 0.13 0.01 86 1015.3
20260506232533 0 237 0.9 3.5 0.01 0.13 0.01 86 1015.2
20260506231559 0 238 0.9 2.6 0.01 0.13 0.01 86 1015.2
20260506230528 0 225 0.0 0.9 0.01 0.13 0.01 86 1015.2
20260506225657 0 239 1.7 3.5 0.01 0.13 0.01 86 1015.1
20260506224556 0 240 0.9 3.5 0.01 0.13 0.01 86 1015.0
20260506223656 0 198 0.9 3.5 0.01 0.13 0.01 86 1015.0
20260506222623 0 275 1.7 6.1 0.00 0.12 0.00 86 1015.1
20260506221521 0 0.0 0.0 0.00 0.12 0.00 86 1015.0
20260506220648 0 293 0.0 0.9 0.00 0.12 0.00 86 1015.0
20260506215517 0 0.0 0.0 0.00 0.12 0.12 86 1014.8
20260506214516 0 0.0 0.0 0.00 0.12 0.12 86 1014.8
20260506213616 0 0.0 0.0 0.00 0.12 0.12 86 1014.8
20260506212045 0 0.0 0.0 0.00 0.12 0.12 86 1014.7
20260506211114 0 0.0 0.0 0.00 0.12 0.12 86 1014.8
20260506210343 0 0.0 0.0 0.00 0.12 0.12 86 1014.7
20260506205612 0 293 0.0 0.9 0.00 0.12 0.12 86 1014.8
20260506204641 0 0.0 0.0 0.00 0.12 0.12 86 1014.7
20260506203537 0 293 0.0 0.9 0.00 0.12 0.12 86 1014.7
20260506202607 0 0.0 0.0 0.00 0.12 0.12 86 1014.7
20260506202006 0 248 0.0 0.9 0.00 0.12 0.12 86 1014.8
20260506200535 0 260 0.9 2.6 0.00 0.12 0.12 86 1014.8
20260506195534 0 270 0.0 0.9 0.00 0.12 0.12 86 1014.8
20260506194533 0 270 0.0 0.9 0.00 0.12 0.12 86 1014.7
20260506193733 0 255 0.9 2.6 0.00 0.12 0.12 86 1014.7
20260506192801 0 0.0 0.0 0.00 0.12 0.12 86 1014.6
20260506191558 0 293 0.0 0.9 0.00 0.12 0.12 86 1014.6
20260506190657 0 293 0.0 0.9 0.00 0.12 0.12 86 1014.6
20260506185653 0 293 0.0 0.9 0.00 0.12 0.12 86 1014.5
20260506184552 0 308 0.9 2.6 0.00 0.12 0.12 86 1014.4
20260506183550 0 274 1.7 3.5 0.00 0.12 0.12 86 1014.3
20260506182519 0 279 1.7 4.3 0.00 0.12 0.12 86 1014.3
20260506181548 0 297 0.9 3.5 0.00 0.12 0.12 86 1014.3
20260506180647 0 281 1.7 6.1 0.00 0.12 0.12 86 1014.3
20260506175644 0 351 0.9 2.6 0.00 0.12 0.12 86 1014.3
20260506174543 0 0 0.9 2.6 0.00 0.12 0.12 86 1014.3
20260506173539 0 349 0.9 2.6 0.00 0.12 0.12 86 1014.2
20260506172609 0 354 0.9 3.5 0.00 0.12 0.12 86 1014.3
20260506171638 0 9 0.9 3.5 0.00 0.12 0.12 86 1014.2
20260506170635 0 339 0.9 3.5 0.00 0.12 0.12 86 1014.3
20260506165534 0 311 1.7 8.7 0.00 0.12 0.12 86 1014.2
20260506164533 0 298 3.5 8.7 0.00 0.12 0.12 86 1014.2
20260506163532 0 283 3.5 7.0 0.00 0.12 0.12 86 1014.1
20260506162532 0 270 6.1 9.6 0.00 0.12 0.12 86 1014.2
20260506161531 0 275 6.1 10.4 0.00 0.12 0.12 86 1014.2
20260506160528 0 278 7.8 13.0 0.00 0.12 0.12 86 1014.2
20260506155627 0 273 7.0 12.2 0.00 0.12 0.12 86 1014.1
20260506154526 0 273 7.8 13.0 0.00 0.12 0.12 86 1014.0
20260506153552 0 282 5.2 9.6 0.00 0.12 0.12 86 1014.0
20260506152549 0 275 7.0 10.4 0.00 0.12 0.12 86 1014.0
20260506151545 0 283 5.2 9.6 0.00 0.12 0.12 86 1014.1
20260506150542 0 273 5.2 9.6 0.00 0.12 0.12 86 1014.1
20260506145541 0 287 5.2 10.4 0.00 0.12 0.12 86 1014.1
20260506144640 0 272 6.1 8.7 0.00 0.12 0.12 86 1014.2
20260506143539 0 279 6.1 10.4 0.00 0.12 0.12 86 1014.2
20260506142538 0 271 5.2 10.4 0.00 0.12 0.12 86 1014.3
20260506141638 0 272 6.1 10.4 0.00 0.12 0.12 86 1014.2
20260506140537 0 281 4.3 10.4 0.00 0.12 0.12 86 1014.1
20260506135536 0 283 4.3 9.6 0.00 0.12 0.12 86 1014.2
20260506134532 0 281 6.1 10.4 0.00 0.12 0.12 86 1014.2
20260506133632 0 295 3.5 8.7 0.00 0.12 0.12 86 1014.2
20260506132531 0 289 5.2 8.7 0.00 0.12 0.12 86 1014.2
20260506131530 0 288 4.3 8.7 0.00 0.13 0.12 86 1014.3
20260506130558 0 288 4.3 9.6 0.00 0.14 0.12 86 1014.2
20260506125524 0 286 6.1 9.6 0.00 0.14 0.12 86 1014.2
20260506124524 0 292 5.2 9.6 0.00 0.14 0.12 86 1014.2
20260506123523 0 273 4.3 9.6 0.00 0.14 0.12 86 1014.1
20260506122552 0 283 2.6 7.0 0.00 0.14 0.12 86 1014.1
20260506121649 0 303 2.6 7.0 0.00 0.14 0.12 86 1014.1
20260506120548 0 300 2.6 6.1 0.00 0.14 0.12 86 1014.1
20260506115517 0 283 3.5 8.7 0.00 0.14 0.12 86 1014.1
20260506114547 0 258 5.2 9.6 0.00 0.14 0.12 86 1014.0
20260506113546 0 261 4.3 10.4 0.00 0.14 0.12 86 1013.9
20260506112545 0 248 5.2 9.6 0.00 0.14 0.12 86 1014.0
20260506111544 0 250 2.6 6.1 0.00 0.14 0.12 86 1014.0
20260506110544 0 248 2.6 6.1 0.00 0.14 0.12 86 1014.0
20260506105640 0 240 2.6 6.1 0.00 0.14 0.12 86 1014.0
20260506104539 0 194 2.6 6.1 0.00 0.14 0.12 86 1014.0
20260506103538 0 200 1.7 3.5 0.00 0.14 0.12 86 1013.9
20260506102534 0 193 2.6 4.3 0.00 0.14 0.12 86 1013.9
20260506101631 0 133 2.6 4.3 0.00 0.14 0.12 86 1013.9
20260506100531 0 211 2.6 6.1 0.00 0.14 0.12 86 1013.9
20260506095627 0 149 1.7 4.3 0.00 0.14 0.12 86 1014.0
20260506094626 0 184 2.6 4.3 0.00 0.15 0.12 86 1014.1
20260506093623 0 144 2.6 4.3 0.00 0.15 0.12 86 1014.0
20260506092649 0 133 1.7 4.3 0.01 0.15 0.12 86 1014.1
20260506091548 0 152 2.6 4.3 0.02 0.15 0.12 86 1014.0
20260506090548 0 152 1.7 4.3 0.04 0.15 0.12 86 1014.0
20260506085545 0 125 2.6 4.3 0.07 0.15 0.12 86 1014.0
20260506084645 0 169 0.9 2.6 0.08 0.16 0.12 86 1014.0
20260506083543 0 134 0.9 2.6 0.09 0.16 0.12 86 1014.1
20260506082542 0 111 0.9 2.6 0.09 0.15 0.11 86 1014.1
20260506081542 0 192 0.9 2.6 0.09 0.15 0.10 86 1014.0
20260506080541 0 293 0.9 2.6 0.07 0.14 0.08 86 1014.0
20260506072629 0 270 0.9 0.9 0.01 0.08 0.02 86 1014.2
20260506071528 0 311 0.9 3.5 0.00 0.07 0.01 86 1014.2
20260506070627 0 299 3.5 7.0 0.00 0.07 0.01 86 1014.1
20260506061521 0 83 0.9 2.6 0.00 0.08 0.01 86 1013.4
20260506060550 0 74 0.9 2.6 0.00 0.08 0.01 86 1013.3
20260506050811 0 68 0.9 2.6 0.00 0.08 0.01 86 1013.3
20260506044707 0 68 0.0 0.9 0.00 0.08 0.01 86 1013.4
20260506043536 0 54 0.0 0.9 0.00 0.08 0.01 86 1013.4
20260506042535 0 45 0.9 2.6 0.01 0.08 0.01 86 1013.4
20260506041533 0 0.0 0.0 0.01 0.08 0.01 86 1013.2
20260506040633 0 45 0.0 0.9 0.01 0.08 0.01 86 1013.2
20260506035629 0 45 0.9 2.6 0.01 0.08 0.01 86 1013.3
20260506034529 0 23 0.9 2.6 0.01 0.08 0.01 86 1013.3
20260506033552 0 338 0.0 2.6 0.01 0.08 0.01 86 1013.3
20260506032548 0 308 0.0 0.9 0.00 0.07 0.00 86 1013.4
20260506031517 0 329 0.9 2.6 0.00 0.07 0.00 86 1013.2
20260506030646 0 23 0.0 0.9 0.00 0.07 0.00 86 1013.1
20260506025546 0 0.0 0.0 0.00 0.07 0.00 86 1013.3
20260506024545 0 0.0 0.0 0.00 0.07 0.00 86 1013.4
20260506023545 0 23 0.0 0.9 0.00 0.07 0.00 86 1013.4
20260506023211 0 0.0 0.0 0.00 0.07 0.00 86 1013.5
20260506021540 0 23 0.9 2.6 0.00 0.07 0.00 86 1013.4
20260506020609 0 0.0 0.0 0.00 0.07 0.00 86 1013.4
20260506015606 0 135 0.9 0.9 0.00 0.07 0.00 86 1013.4
20260506014706 0 135 0.9 2.6 0.00 0.07 0.00 86 1013.4
20260506013632 0 135 0.0 0.9 0.00 0.07 0.00 86 1013.4
20260506012532 0 135 0.9 0.9 0.00 0.07 0.00 86 1013.4
20260506011530 0 158 0.9 2.6 0.00 0.07 0.00 86 1013.4
20260506010529 0 158 0.9 2.6 0.00 0.07 0.00 86 1013.5
20260506005529 0 176 1.7 4.3 0.00 0.07 0.00 86 1013.4
20260506004528 0 240 1.7 4.3 0.00 0.07 0.00 86 1013.5